Regional Weather Roundup
Issued by NWS

Home | Current Version | Previous Version | Graphics & Text | Print | Product List | Glossary On
Versions: 1 2 3 4 5 6 7 8 9 10 11 12 13 14 15 16 17 18 19 20 21 22 23 24 25 26 27 28 29 30 31 32 33 34 35 36 37 38 39 40 41 42 43 44 45 46 47 48 49 50
000
ASUS43 KLOT 230358
RWRIL

ILLINOIS REGIONAL WEATHER ROUNDUP
NATIONAL WEATHER SERVICE CHICAGO/ROMEOVILLE IL
1100 PM CDT FRI AUG 22 2014

NOTE: "FAIR" INDICATES FEW OR NO CLOUDS BELOW 12,000 FEET WITH NO
SIGNIFICANT WEATHER AND/OR OBSTRUCTIONS TO VISIBILITY.

* THESE STATIONS ARE NOT UNDER NWS QUALITY CONTROL. THEY ALSO MAY NOT
  REPORT WEATHER SUCH AS PRECIPITATION OR FOG.

ILZ001-002-007-009-015-016-024-230500-
NORTHWEST ILLINOIS

CITY           SKY/WX    TMP DP  RH WIND       PRES   REMARKS
MOLINE         CLEAR     74  71  91 SE5       29.95F
$$

ILZ003-004-008-010-011-017-018-230500-
NORTH CENTRAL ILLINOIS

CITY           SKY/WX    TMP DP  RH WIND       PRES   REMARKS
ROCKFORD       NOT AVBL
$$

ILZ005-006-012>014-019>023-230500-
NORTHEAST ILLINOIS

CITY           SKY/WX    TMP DP  RH WIND       PRES   REMARKS
CHICAGO-OHARE  PTCLDY    79  70  74 NE5       29.99R HX  82
CHICAGO-MIDWAY PTCLDY    80  75  84 SW6       29.99R HX  85
AURORA         MOCLDY    74  71  91 CALM      30.00R
WAUKEGAN       CLOUDY    73  72  96 CALM      29.99S FOG
DUPAGE AIRPORT MOCLDY    77  74  90 CALM      29.99S
WHEELING       PTCLDY    77  72  84 CALM      30.01R
NORTHERLY ISL    N/A     74  71  91 N1          N/A
$$

LMZ740>746-230500-
SOUTHERN LAKE MICHIGAN

STATION/POSITION SKY/WX   TEMP    WIND        PRES    VSBY  WAVE
                          AIR SEA DIR/SP/G                  HT/PER
                          (F)     (DEG/KT/KT) (MB)    (MI)  (FT/S)
SOUTHERN BUOY              71 71   40/  8/ 10 1015.4R         0
WAUKEGAN HARBOR            74      CALM  /  3   N/A
HARRISON CRIB              75     110/  4/  4   N/A
BURNHAM HARBOR             74      CALM  /  5   N/A
CALUMET HARBOR             78     230/  2/  4 1014.4R
MICHIGAN CITY              77      30/  4/  5   N/A
MICHIGAN CITY 6N           75 74   70/  2/  4   N/A           0
ST. JOSEPH                 74 73   20/  2/  2   N/A           0
$$

ILZ025>027-034>036-040-047-049-050-058-095>099-230500-
WEST-CENTRAL ILLINOIS

CITY           SKY/WX    TMP DP  RH WIND       PRES   REMARKS
$$

ILZ028>032-037-038-041>044-048-051>054-059>061-230500-
CENTRAL ILLINOIS

CITY           SKY/WX    TMP DP  RH WIND       PRES   REMARKS
PEORIA         NOT AVBL
SPRINGFIELD    PTCLDY    80  77  90 SE3       29.97S HX  87
TAYLORVILLE    NOT AVBL
$$

ILZ033-039-045-046-055>057-062-063-230500-
EAST-CENTRAL ILLINOIS

CITY           SKY/WX    TMP DP  RH WIND       PRES   REMARKS
$$

ILZ079-100>102-230500-
SOUTHWEST ILLINOIS

CITY           SKY/WX    TMP DP  RH WIND       PRES   REMARKS
CAHOKIA*       PTCLDY    81  78  91 S5        29.94S HX  89
$$

ILZ064>066-069>071-074>076-080>082-084>086-088>090-092>094-230500-
SOUTH-CENTRAL ILLINOIS

CITY           SKY/WX    TMP DP  RH WIND       PRES   REMARKS
CARBONDALE     MOCLDY    79  75  87 S5        29.97R HX  83
$$

ILZ067-068-072-073-078-083-087-091-230500-
SOUTHEAST ILLINOIS

CITY           SKY/WX    TMP DP  RH WIND       PRES   REMARKS
$$

ABBREVIATIONS USED IN REMARKS
   TC - TEMPERATURE IN CELSIUS
  WCI - WIND CHILL INDEX
   HX - HEAT INDEX
  VSB - VISIBILITY
$$




USA.gov is the U.S. government's official web portal to all federal, state and local government web resources and services.